TimeEST,TemperatureF,Dew PointF,Humidity,Sea Level PressureIn,VisibilityMPH,Wind Direction,Wind SpeedMPH,Gust SpeedMPH,PrecipitationIn,Events,Conditions,WindDirDegrees,DateUTC
12:53 AM,44.1,37.0,76,30.23,10.0,Calm,Calm,-,N/A,,Clear,0,2013-01-07 05:53:00
1:53 AM,39.0,35.1,86,30.24,10.0,Calm,Calm,-,N/A,,Clear,0,2013-01-07 06:53:00
2:53 AM,37.0,35.1,93,30.25,10.0,Calm,Calm,-,N/A,,Clear,0,2013-01-07 07:53:00
3:53 AM,36.0,34.0,93,30.27,10.0,Calm,Calm,-,N/A,,Clear,0,2013-01-07 08:53:00
4:53 AM,34.0,32.0,92,30.27,8.0,Calm,Calm,-,N/A,,Clear,0,2013-01-07 09:53:00
5:53 AM,34.0,32.0,92,30.29,7.0,Calm,Calm,-,N/A,,Clear,0,2013-01-07 10:53:00
6:53 AM,33.1,32.0,96,30.33,8.0,Calm,Calm,-,N/A,,Clear,0,2013-01-07 11:53:00
7:53 AM,34.0,33.1,96,30.36,8.0,Calm,Calm,-,N/A,,Clear,0,2013-01-07 12:53:00
8:53 AM,37.9,36.0,93,30.39,10.0,Calm,Calm,-,N/A,,Clear,0,2013-01-07 13:53:00
9:53 AM,43.0,35.1,74,30.42,10.0,Variable,3.5,-,N/A,,Clear,0,2013-01-07 14:53:00
10:53 AM,48.0,32.0,54,30.43,10.0,Variable,5.8,-,N/A,,Clear,0,2013-01-07 15:53:00
11:53 AM,52.0,32.0,47,30.42,10.0,Variable,5.8,-,N/A,,Clear,0,2013-01-07 16:53:00
12:53 PM,54.0,30.0,40,30.39,10.0,Variable,4.6,-,N/A,,Clear,0,2013-01-07 17:53:00
2:53 PM,55.9,30.9,39,30.36,10.0,Calm,Calm,-,N/A,,Clear,0,2013-01-07 19:53:00
3:53 PM,57.0,30.0,36,30.36,10.0,Variable,4.6,-,N/A,,Clear,0,2013-01-07 20:53:00
4:53 PM,54.0,30.9,41,30.38,10.0,Variable,3.5,-,N/A,,Clear,0,2013-01-07 21:53:00
6:53 PM,46.9,34.0,61,30.42,10.0,Calm,Calm,-,N/A,,Clear,0,2013-01-07 23:53:00
7:53 PM,44.1,35.1,71,30.42,10.0,Calm,Calm,-,N/A,,Clear,0,2013-01-08 00:53:00
8:53 PM,42.1,35.1,76,30.41,10.0,Calm,Calm,-,N/A,,Clear,0,2013-01-08 01:53:00
9:53 PM,39.9,35.1,83,30.41,10.0,Calm,Calm,-,N/A,,Clear,0,2013-01-08 02:53:00
10:53 PM,37.9,34.0,86,30.41,9.0,Calm,Calm,-,N/A,,Clear,0,2013-01-08 03:53:00
11:53 PM,37.9,34.0,86,30.41,10.0,Calm,Calm,-,N/A,,Clear,0,2013-01-08 04:53:00